QPF
0.00 0.00 0.00 0.00 0.00 0.00 0.00 0.00 0.00 0.00 0.00 0.00 0.00 0.00 0.00 0.00 0.00 0.00 0.00 0.00 0.00 0.00 0.00 0.00 0.00 0.00 0.00 0.00 0.00 0.00 0.00 0.01 0.01 0.01 0.00 0.00 0.00 0.00 0.00 0.00 0.00 0.00 0.00 0.00 0.01 0.01 0.01 0.02 0.02
0.00 0.00 0.00 0.00 0.00 0.00 0.00 0.00 0.00 0.00 0.00 0.00 0.00 0.01 0.01 0.00 0.00 0.00 0.00 0.00 0.00 0.00 0.00 0.00 0.00 0.00 0.00 0.00 0.00 0.00 0.00 0.01 0.01 0.01 0.00 0.00 0.00 0.00 0.00 0.00 0.00 0.00 0.00 0.00 0.01 0.01 0.01 0.01 0.01
0.00 0.00 0.00 0.00 0.00 0.00 0.00 0.00 0.00 0.00 0.00 0.01 0.01 0.00 0.01 0.01 0.00 0.00 0.00 0.00 0.00 0.00 0.00 0.00 0.00 0.00 0.00 0.00 0.00 0.01 0.01 0.01 0.01 0.01 0.01 0.01 0.01 0.00 0.00 0.00 0.00 0.00 0.00 0.00 0.00 0.01 0.00 0.00 0.00
0.00 0.00 0.00 0.00 0.00 0.00 0.00 0.00 0.00 0.00 0.00 0.01 0.01 0.01 0.01 0.00 0.00 0.00 0.00 0.00 0.00 0.00 0.00 0.00 0.00 0.00 0.00 0.00 0.00 0.00 0.00 0.01 0.01 0.00 0.00 0.00 0.00 0.00 0.00 0.00 0.00 0.00 0.00 0.00 0.00 0.00 0.00 0.00 0.01
0.00 0.00 0.00 0.00 0.00 0.00 0.00 0.00 0.00 0.00 0.01 0.01 0.01 0.01 0.01 0.00 0.00 0.00 0.00 0.00 0.00 0.00 0.00 0.00 0.00 0.00 0.00 0.00 0.00 0.00 0.00 0.00 0.00 0.00 0.00 0.00 0.00 0.00 0.00 0.00 0.00 0.00 0.00 0.00 0.00 0.00 0.00 0.00 0.00
0.00 0.00 0.00 0.00 0.00 0.00 0.00 0.00 0.00 0.00 0.00 0.01 0.01 0.01 0.01 0.01 0.01 0.00 0.00 0.00 0.00 0.00 0.00 0.00 0.00 0.00 0.00 0.00 0.00 0.00 0.00 0.00 0.00 0.00 0.00 0.00 0.00 0.00 0.00 0.00 0.01 0.01 0.00 0.00 0.00 0.00 0.00 0.00 0.00
0.00 0.00 0.00 0.00 0.00 0.00 0.00 0.00 0.00 0.00 0.00 0.00 0.01 0.01 0.01 0.01 0.01 0.01 0.00 0.00 0.00 0.00 0.00 0.00 0.00 0.00 0.00 0.00 0.00 0.00 0.00 0.00 0.00 0.00 0.00 0.00 0.00 0.00 0.00 0.01 0.01 0.01 0.01 0.01 0.00 0.00 0.00 0.00 0.00
0.00 0.00 0.00 0.00 0.00 0.00 0.00 0.00 0.00 0.00 0.00 0.00 0.00 0.01 0.01 0.01 0.01 0.01 0.00 0.00 0.00 0.00 0.00 0.00 0.00 0.00 0.00 0.00 0.00 0.01 0.00 0.01 0.01 0.00 0.00 0.00 0.00 0.00 0.00 0.01 0.01 0.01 0.01 0.01 0.01 0.00 0.00 0.00 0.00
0.00 0.00 0.00 0.00 0.00 0.00 0.00 0.00 0.00 0.00 0.00 0.00 0.00 0.00 0.01 0.01 0.01 0.01 0.01 0.01 0.00 0.01 0.01 0.01 0.01 0.01 0.01 0.01 0.01 0.01 0.01 0.01 0.01 0.02 0.01 0.01 0.01 0.01 0.01 0.01 0.01 0.01 0.01 0.01 0.01 0.00 0.00 0.00 0.00
0.00 0.00 0.00 0.00 0.00 0.00 0.00 0.00 0.00 0.00 0.00 0.00 0.01 0.01 0.01 0.01 0.01 0.02 0.02 0.02 0.01 0.02 0.02 0.02 0.01 0.01 0.02 0.02 0.02 0.02 0.01 0.02 0.02 0.03 0.04 0.03 0.03 0.04 0.03 0.03 0.03 0.02 0.02 0.02 0.01 0.01 0.01 0.00 0.00
0.00 0.00 0.00 0.00 0.00 0.00 0.00 0.00 0.00 0.00 0.00 0.00 0.00 0.01 0.01 0.01 0.01 0.01 0.02 0.02 0.02 0.02 0.02 0.02 0.02 0.03 0.03 0.04 0.04 0.04 0.04 0.04 0.04 0.05 0.07 0.09 0.11 0.08 0.05 0.05 0.04 0.04 0.03 0.03 0.03 0.02 0.02 0.02 0.01
0.00 0.00 0.00 0.00 0.00 0.00 0.00 0.00 0.00 0.00 0.00 0.00 0.00 0.01 0.01 0.01 0.01 0.01 0.01 0.01 0.01 0.02 0.02 0.02 0.03 0.03 0.04 0.06 0.06 0.07 0.07 0.08 0.07 0.07 0.09 0.09 0.10 0.09 0.08 0.06 0.05 0.05 0.05 0.05 0.05 0.04 0.03 0.03 0.02
0.00 0.00 0.00 0.00 0.00 0.00 0.00 0.00 0.00 0.00 0.00 0.00 0.00 0.01 0.02 0.03 0.01 0.01 0.01 0.01 0.01 0.01 0.03 0.03 0.02 0.02 0.03 0.05 0.05 0.07 0.07 0.08 0.10 0.10 0.10 0.10 0.10 0.10 0.10 0.07 0.06 0.06 0.06 0.06 0.05 0.04 0.03 0.03 0.02
0.00 0.00 0.00 0.00 0.00 0.00 0.00 0.00 0.00 0.00 0.00 0.01 0.01 0.01 0.02 0.03 0.02 0.01 0.01 0.01 0.01 0.01 0.01 0.02 0.02 0.02 0.02 0.03 0.04 0.04 0.05 0.06 0.08 0.09 0.09 0.10 0.11 0.11 0.11 0.09 0.07 0.07 0.07 0.07 0.06 0.05 0.05 0.04 0.03
0.00 0.00 0.00 0.00 0.00 0.00 0.00 0.00 0.00 0.00 0.00 0.00 0.01 0.01 0.01 0.01 0.02 0.02 0.01 0.01 0.01 0.01 0.01 0.02 0.02 0.03 0.03 0.03 0.03 0.04 0.05 0.06 0.08 0.10 0.10 0.09 0.10 0.10 0.10 0.11 0.08 0.07 0.09 0.09 0.08 0.07 0.07 0.05 0.05
0.00 0.00 0.00 0.00 0.00 0.00 0.00 0.00 0.00 0.00 0.00 0.00 0.00 0.00 0.00 0.01 0.01 0.01 0.01 0.01 0.01 0.02 0.02 0.02 0.03 0.03 0.03 0.03 0.04 0.05 0.07 0.08 0.10 0.14 0.14 0.12 0.10 0.10 0.10 0.11 0.09 0.10 0.11 0.11 0.10 0.10 0.10 0.08 0.06
0.00 0.00 0.00 0.00 0.00 0.00 0.00 0.00 0.00 0.00 0.00 0.00 0.00 0.00 0.00 0.01 0.01 0.01 0.01 0.01 0.01 0.02 0.03 0.03 0.04 0.05 0.05 0.05 0.06 0.07 0.08 0.10 0.11 0.14 0.14 0.11 0.10 0.10 0.10 0.10 0.10 0.12 0.14 0.15 0.15 0.15 0.15 0.12 0.10
0.00 0.00 0.00 0.00 0.00 0.00 0.00 0.00 0.00 0.00 0.00 0.00 0.00 0.00 0.00 0.01 0.01 0.01 0.01 0.01 0.01 0.01 0.03 0.04 0.07 0.09 0.09 0.10 0.12 0.10 0.09 0.09 0.09 0.11 0.15 0.13 0.11 0.11 0.13 0.12 0.10 0.13 0.16 0.17 0.19 0.18 0.18 0.17 0.16
0.00 0.00 0.00 0.00 0.00 0.00 0.00 0.00 0.00 0.00 0.00 0.00 0.00 0.00 0.00 0.00 0.00 0.01 0.01 0.02 0.02 0.05 0.05 0.06 0.08 0.11 0.11 0.10 0.11 0.11 0.08 0.08 0.09 0.10 0.11 0.12 0.13 0.15 0.15 0.14 0.14 0.15 0.17 0.18 0.20 0.19 0.19 0.21 0.19
0.00 0.00 0.00 0.00 0.00 0.00 0.00 0.00 0.00 0.00 0.00 0.00 0.00 0.00 0.00 0.00 0.01 0.01 0.01 0.02 0.07 0.08 0.08 0.10 0.11 0.12 0.10 0.09 0.09 0.09 0.11 0.11 0.09 0.10 0.11 0.11 0.14 0.19 0.22 0.23 0.22 0.22 0.21 0.23 0.25 0.23 0.22 0.20 0.20
0.00 0.00 0.00 0.00 0.00 0.00 0.00 0.00 0.00 0.00 0.00 0.00 0.00 0.00 0.01 0.01 0.01 0.01 0.01 0.01 0.01 0.01 0.02 0.04 0.07 0.07 0.07 0.06 0.06 0.06 0.08 0.10 0.10 0.09 0.13 0.13 0.12 0.13 0.18 0.21 0.23 0.24 0.22 0.23 0.28 0.28 0.26 0.22 0.20
0.00 0.00 0.00 0.00 0.00 0.00 0.00 0.00 0.00 0.00 0.00 0.00 0.00 0.00 0.01 0.01 0.01 0.01 0.01 0.01 0.01 0.01 0.01 0.01 0.02 0.03 0.04 0.04 0.04 0.06 0.08 0.08 0.09 0.10 0.12 0.17 0.20 0.17 0.16 0.19 0.20 0.19 0.19 0.21 0.24 0.30 0.29 0.27 0.25
0.00 0.00 0.00 0.00 0.00 0.00 0.00 0.00 0.00 0.00 0.01 0.00 0.00 0.01 0.01 0.01 0.01 0.01 0.01 0.01 0.01 0.01 0.01 0.01 0.02 0.02 0.03 0.06 0.05 0.06 0.07 0.08 0.09 0.10 0.10 0.11 0.17 0.17 0.14 0.11 0.12 0.13 0.13 0.16 0.21 0.27 0.32 0.32 0.30
0.00 0.00 0.00 0.00 0.00 0.00 0.00 0.00 0.00 0.00 0.00 0.00 0.01 0.00 0.01 0.01 0.01 0.01 0.01 0.00 0.00 0.01 0.01 0.02 0.02 0.02 0.04 0.06 0.07 0.07 0.08 0.09 0.10 0.10 0.10 0.09 0.10 0.11 0.09 0.08 0.07 0.08 0.09 0.09 0.12 0.17 0.24 0.31 0.33
0.00 0.00 0.00 0.00 0.00 0.00 0.00 0.00 0.00 0.00 0.00 0.00 0.00 0.00 0.00 0.00 0.01 0.01 0.00 0.00 0.00 0.01 0.01 0.02 0.02 0.02 0.02 0.03 0.05 0.07 0.08 0.09 0.10 0.10 0.09 0.09 0.09 0.08 0.07 0.06 0.06 0.07 0.08 0.08 0.10 0.14 0.21 0.27 0.31
0.00 0.00 0.00 0.00 0.00 0.00 0.00 0.00 0.00 0.00 0.01 0.01 0.00 0.00 0.00 0.00 0.00 0.00 0.00 0.00 0.01 0.02 0.02 0.03 0.02 0.02 0.01 0.03 0.04 0.06 0.06 0.06 0.09 0.09 0.08 0.07 0.07 0.07 0.06 0.05 0.04 0.06 0.07 0.08 0.08 0.11 0.15 0.20 0.25
0.00 0.00 0.00 0.00 0.00 0.00 0.00 0.00 0.00 0.00 0.01 0.00 0.00 0.00 0.00 0.00 0.00 0.00 0.00 0.00 0.01 0.01 0.01 0.02 0.02 0.02 0.02 0.03 0.02 0.03 0.04 0.04 0.05 0.07 0.07 0.06 0.05 0.05 0.05 0.04 0.03 0.04 0.06 0.08 0.08 0.09 0.12 0.14 0.17
0.00 0.00 0.00 0.00 0.01 0.01 0.00 0.00 0.00 0.00 0.00 0.00 0.00 0.00 0.00 0.00 0.00 0.00 0.00 0.00 0.01 0.01 0.01 0.01 0.02 0.03 0.02 0.02 0.03 0.02 0.03 0.03 0.03 0.05 0.07 0.06 0.05 0.04 0.04 0.03 0.03 0.03 0.04 0.06 0.08 0.08 0.10 0.13 0.14
0.00 0.00 0.00 0.00 0.01 0.01 0.01 0.00 0.00 0.00 0.00 0.00 0.00 0.00 0.00 0.00 0.00 0.00 0.00 0.00 0.00 0.00 0.01 0.01 0.01 0.02 0.02 0.02 0.02 0.02 0.02 0.03 0.03 0.03 0.04 0.04 0.03 0.03 0.03 0.02 0.03 0.04 0.04 0.05 0.07 0.08 0.07 0.09 0.12
0.00 0.00 0.00 0.01 0.01 0.01 0.01 0.01 0.00 0.00 0.00 0.00 0.00 0.00 0.00 0.00 0.00 0.00 0.00 0.00 0.00 0.00 0.01 0.01 0.01 0.01 0.01 0.02 0.02 0.02 0.01 0.02 0.02 0.03 0.04 0.04 0.02 0.02 0.03 0.03 0.04 0.05 0.07 0.07 0.06 0.07 0.08 0.08 0.08
MSLP
1011.32 1011.60 1011.94 1012.24 1012.43 1012.47 1012.33 1012.06 1011.70 1011.33 1011.00 1010.75 1010.58 1010.46 1010.36 1010.24 1010.08 1009.91 1009.75 1009.66 1009.71 1009.93 1010.33 1010.88 1011.51 1012.16 1012.74 1013.21 1013.56 1013.81 1014.01 1014.22 1014.50 1014.87 1015.35 1015.87 1016.41 1016.88 1017.25 1017.50 1017.64 1017.72 1017.77 1017.86 1018.01 1018.23 1018.48 1018.74 1018.95
1011.28 1011.63 1012.01 1012.32 1012.48 1012.45 1012.22 1011.84 1011.38 1010.92 1010.52 1010.22 1010.04 1009.94 1009.88 1009.82 1009.75 1009.66 1009.59 1009.59 1009.71 1010.00 1010.45 1011.04 1011.72 1012.39 1013.00 1013.49 1013.86 1014.12 1014.33 1014.54 1014.81 1015.16 1015.61 1016.09 1016.58 1017.00 1017.32 1017.53 1017.64 1017.70 1017.76 1017.87 1018.06 1018.31 1018.60 1018.89 1019.11
1011.33 1011.71 1012.09 1012.36 1012.46 1012.35 1012.03 1011.56 1011.02 1010.49 1010.05 1009.75 1009.57 1009.51 1009.51 1009.53 1009.53 1009.53 1009.53 1009.61 1009.80 1010.14 1010.64 1011.28 1011.99 1012.71 1013.36 1013.90 1014.31 1014.60 1014.82 1015.03 1015.28 1015.60 1015.99 1016.41 1016.81 1017.16 1017.42 1017.58 1017.66 1017.72 1017.79 1017.93 1018.14 1018.43 1018.75 1019.04 1019.27
1011.45 1011.83 1012.18 1012.39 1012.41 1012.21 1011.80 1011.26 1010.67 1010.11 1009.67 1009.38 1009.24 1009.23 1009.29 1009.38 1009.46 1009.52 1009.60 1009.73 1009.97 1010.36 1010.90 1011.57 1012.33 1013.09 1013.79 1014.37 1014.82 1015.15 1015.40 1015.61 1015.84 1016.11 1016.43 1016.77 1017.09 1017.36 1017.56 1017.68 1017.75 1017.81 1017.91 1018.07 1018.31 1018.62 1018.95 1019.24 1019.46
1011.62 1011.97 1012.26 1012.40 1012.33 1012.05 1011.58 1010.99 1010.38 1009.82 1009.40 1009.15 1009.07 1009.11 1009.23 1009.38 1009.52 1009.64 1009.77 1009.94 1010.22 1010.63 1011.20 1011.89 1012.67 1013.46 1014.20 1014.82 1015.31 1015.67 1015.94 1016.15 1016.36 1016.58 1016.84 1017.10 1017.36 1017.57 1017.73 1017.83 1017.90 1017.99 1018.11 1018.31 1018.57 1018.89 1019.21 1019.48 1019.67
1011.80 1012.10 1012.32 1012.37 1012.23 1011.88 1011.38 1010.78 1010.18 1009.66 1009.28 1009.08 1009.04 1009.14 1009.32 1009.51 1009.69 1009.86 1010.02 1010.22 1010.52 1010.94 1011.51 1012.21 1012.98 1013.77 1014.52 1015.15 1015.66 1016.04 1016.31 1016.52 1016.71 1016.90 1017.11 1017.33 1017.53 1017.72 1017.86 1017.98 1018.08 1018.20 1018.36 1018.58 1018.86 1019.17 1019.47 1019.71 1019.86
1011.94 1012.18 1012.31 1012.29 1012.09 1011.72 1011.21 1010.64 1010.08 1009.62 1009.30 1009.15 1009.16 1009.30 1009.51 1009.74 1009.95 1010.14 1010.33 1010.55 1010.86 1011.28 1011.82 1012.49 1013.23 1013.99 1014.70 1015.31 1015.80 1016.17 1016.44 1016.64 1016.81 1016.98 1017.17 1017.37 1017.57 1017.75 1017.91 1018.05 1018.20 1018.36 1018.56 1018.81 1019.09 1019.39 1019.66 1019.86 1019.97
1012.01 1012.17 1012.23 1012.16 1011.93 1011.56 1011.09 1010.57 1010.08 1009.69 1009.44 1009.34 1009.40 1009.56 1009.79 1010.04 1010.27 1010.48 1010.69 1010.93 1011.23 1011.63 1012.14 1012.75 1013.43 1014.11 1014.75 1015.30 1015.74 1016.08 1016.32 1016.51 1016.68 1016.84 1017.03 1017.23 1017.43 1017.63 1017.82 1018.00 1018.19 1018.39 1018.63 1018.89 1019.17 1019.45 1019.68 1019.85 1019.94
1011.99 1012.08 1012.08 1011.97 1011.74 1011.41 1011.00 1010.58 1010.18 1009.88 1009.69 1009.65 1009.73 1009.91 1010.15 1010.41 1010.65 1010.88 1011.11 1011.36 1011.66 1012.04 1012.50 1013.03 1013.61 1014.19 1014.72 1015.18 1015.55 1015.83 1016.04 1016.21 1016.37 1016.54 1016.74 1016.95 1017.17 1017.39 1017.60 1017.81 1018.02 1018.25 1018.50 1018.77 1019.04 1019.30 1019.51 1019.65 1019.72
1011.89 1011.92 1011.88 1011.76 1011.56 1011.29 1010.99 1010.67 1010.39 1010.18 1010.06 1010.07 1010.17 1010.35 1010.59 1010.84 1011.10 1011.35 1011.60 1011.87 1012.17 1012.52 1012.92 1013.37 1013.84 1014.29 1014.70 1015.05 1015.32 1015.54 1015.71 1015.86 1016.02 1016.20 1016.40 1016.62 1016.85 1017.08 1017.29 1017.51 1017.72 1017.94 1018.18 1018.44 1018.70 1018.94 1019.14 1019.27 1019.34
1011.75 1011.73 1011.67 1011.57 1011.43 1011.26 1011.07 1010.88 1010.72 1010.61 1010.57 1010.61 1010.72 1010.90 1011.13 1011.38 1011.65 1011.92 1012.19 1012.47 1012.77 1013.10 1013.45 1013.81 1014.16 1014.48 1014.77 1014.99 1015.17 1015.32 1015.45 1015.58 1015.74 1015.92 1016.13 1016.35 1016.57 1016.78 1016.97 1017.15 1017.33 1017.52 1017.73 1017.96 1018.20 1018.43 1018.63 1018.77 1018.86
1011.61 1011.56 1011.50 1011.45 1011.39 1011.33 1011.28 1011.23 1011.19 1011.19 1011.22 1011.29 1011.42 1011.59 1011.80 1012.04 1012.30 1012.59 1012.88 1013.17 1013.48 1013.78 1014.08 1014.35 1014.60 1014.80 1014.97 1015.09 1015.18 1015.26 1015.36 1015.48 1015.63 1015.81 1016.02 1016.22 1016.41 1016.57 1016.71 1016.83 1016.94 1017.07 1017.23 1017.42 1017.64 1017.87 1018.08 1018.26 1018.39
1011.52 1011.46 1011.43 1011.43 1011.47 1011.54 1011.63 1011.72 1011.82 1011.92 1012.01 1012.12 1012.25 1012.41 1012.60 1012.82 1013.08 1013.36 1013.65 1013.96 1014.25 1014.53 1014.78 1014.98 1015.14 1015.24 1015.30 1015.33 1015.35 1015.39 1015.45 1015.57 1015.72 1015.90 1016.09 1016.27 1016.41 1016.51 1016.57 1016.60 1016.63 1016.68 1016.78 1016.93 1017.13 1017.37 1017.61 1017.83 1018.02
1011.50 1011.46 1011.46 1011.54 1011.68 1011.88 1012.12 1012.36 1012.58 1012.77 1012.94 1013.08 1013.21 1013.35 1013.51 1013.70 1013.93 1014.20 1014.49 1014.78 1015.06 1015.31 1015.51 1015.65 1015.72 1015.74 1015.72 1015.68 1015.65 1015.66 1015.71 1015.82 1015.98 1016.16 1016.33 1016.48 1016.57 1016.60 1016.57 1016.51 1016.46 1016.43 1016.47 1016.58 1016.77 1017.02 1017.30 1017.58 1017.83
1011.56 1011.53 1011.59 1011.74 1011.99 1012.32 1012.69 1013.06 1013.40 1013.68 1013.91 1014.08 1014.21 1014.33 1014.47 1014.63 1014.83 1015.07 1015.33 1015.60 1015.84 1016.05 1016.20 1016.28 1016.29 1016.24 1016.16 1016.08 1016.01 1016.00 1016.05 1016.15 1016.31 1016.48 1016.65 1016.76 1016.81 1016.78 1016.69 1016.56 1016.43 1016.34 1016.33 1016.41 1016.59 1016.85 1017.17 1017.52 1017.84
1011.67 1011.67 1011.77 1012.00 1012.34 1012.78 1013.26 1013.75 1014.18 1014.55 1014.82 1015.02 1015.17 1015.28 1015.39 1015.53 1015.70 1015.90 1016.13 1016.36 1016.56 1016.72 1016.82 1016.84 1016.79 1016.69 1016.56 1016.44 1016.35 1016.32 1016.36 1016.46 1016.61 1016.78 1016.93 1017.03 1017.05 1017.00 1016.86 1016.69 1016.52 1016.39 1016.34 1016.40 1016.57 1016.85 1017.21 1017.60 1017.98
1011.78 1011.80 1011.95 1012.24 1012.66 1013.18 1013.75 1014.31 1014.82 1015.24 1015.57 1015.80 1015.96 1016.08 1016.19 1016.31 1016.46 1016.64 1016.83 1017.02 1017.18 1017.29 1017.33 1017.30 1017.20 1017.05 1016.89 1016.73 1016.61 1016.56 1016.58 1016.68 1016.82 1016.98 1017.12 1017.21 1017.23 1017.17 1017.04 1016.86 1016.68 1016.53 1016.47 1016.51 1016.68 1016.95 1017.31 1017.73 1018.17
1011.87 1011.91 1012.09 1012.42 1012.89 1013.46 1014.08 1014.68 1015.23 1015.68 1016.03 1016.29 1016.48 1016.62 1016.75 1016.89 1017.05 1017.23 1017.41 1017.58 1017.70 1017.77 1017.76 1017.68 1017.53 1017.34 1017.14 1016.94 1016.80 1016.71 1016.71 1016.77 1016.89 1017.04 1017.17 1017.27 1017.31 1017.27 1017.16 1017.01 1016.85 1016.72 1016.65 1016.67 1016.81 1017.06 1017.40 1017.81 1018.27
1011.91 1011.96 1012.16 1012.51 1013.00 1013.58 1014.19 1014.79 1015.34 1015.79 1016.16 1016.44 1016.66 1016.86 1017.04 1017.24 1017.44 1017.66 1017.86 1018.03 1018.14 1018.18 1018.14 1018.01 1017.83 1017.59 1017.35 1017.12 1016.93 1016.81 1016.76 1016.78 1016.87 1016.99 1017.11 1017.21 1017.27 1017.27 1017.22 1017.12 1016.99 1016.88 1016.81 1016.82 1016.90 1017.09 1017.38 1017.75 1018.19
1011.90 1011.96 1012.17 1012.52 1013.00 1013.54 1014.11 1014.66 1015.16 1015.58 1015.93 1016.23 1016.50 1016.77 1017.04 1017.33 1017.63 1017.92 1018.18 1018.39 1018.51 1018.55 1018.49 1018.34 1018.12 1017.85 1017.57 1017.30 1017.07 1016.90 1016.80 1016.77 1016.81 1016.89 1016.99 1017.09 1017.17 1017.21 1017.21 1017.16 1017.09 1017.00 1016.92 1016.89 1016.91 1017.01 1017.20 1017.48 1017.86
1011.86 1011.93 1012.16 1012.50 1012.93 1013.41 1013.90 1014.35 1014.76 1015.11 1015.43 1015.73 1016.05 1016.41 1016.80 1017.22 1017.65 1018.06 1018.42 1018.69 1018.85 1018.91 1018.84 1018.68 1018.44 1018.15 1017.84 1017.54 1017.27 1017.06 1016.90 1016.82 1016.79 1016.82 1016.89 1016.97 1017.06 1017.12 1017.16 1017.16 1017.12 1017.04 1016.95 1016.86 1016.80 1016.78 1016.85 1017.02 1017.31
1011.83 1011.94 1012.18 1012.50 1012.88 1013.27 1013.64 1013.96 1014.24 1014.50 1014.76 1015.06 1015.43 1015.88 1016.40 1016.98 1017.56 1018.12 1018.59 1018.95 1019.18 1019.26 1019.21 1019.04 1018.79 1018.49 1018.16 1017.85 1017.56 1017.31 1017.11 1016.97 1016.88 1016.85 1016.87 1016.91 1016.98 1017.05 1017.10 1017.12 1017.10 1017.02 1016.90 1016.75 1016.59 1016.45 1016.38 1016.42 1016.59
1011.86 1012.03 1012.29 1012.60 1012.91 1013.20 1013.43 1013.60 1013.74 1013.88 1014.08 1014.36 1014.77 1015.32 1015.97 1016.70 1017.45 1018.15 1018.75 1019.21 1019.49 1019.61 1019.57 1019.40 1019.15 1018.85 1018.53 1018.21 1017.92 1017.66 1017.43 1017.25 1017.11 1017.01 1016.96 1016.95 1016.97 1017.01 1017.05 1017.06 1017.03 1016.93 1016.78 1016.57 1016.32 1016.07 1015.87 1015.77 1015.82
1011.99 1012.22 1012.51 1012.80 1013.06 1013.24 1013.33 1013.36 1013.35 1013.38 1013.50 1013.77 1014.21 1014.84 1015.62 1016.49 1017.39 1018.22 1018.92 1019.45 1019.79 1019.92 1019.89 1019.73 1019.49 1019.20 1018.89 1018.60 1018.33 1018.08 1017.85 1017.64 1017.46 1017.30 1017.18 1017.09 1017.04 1017.02 1017.01 1016.98 1016.92 1016.81 1016.62 1016.36 1016.04 1015.71 1015.42 1015.21 1015.15
1012.22 1012.51 1012.83 1013.11 1013.31 1013.39 1013.36 1013.25 1013.12 1013.04 1013.10 1013.36 1013.84 1014.54 1015.42 1016.41 1017.42 1018.35 1019.13 1019.70 1020.06 1020.20 1020.17 1020.00 1019.76 1019.49 1019.23 1018.98 1018.75 1018.54 1018.33 1018.12 1017.91 1017.69 1017.50 1017.32 1017.18 1017.08 1016.99 1016.91 1016.81 1016.66 1016.45 1016.16 1015.82 1015.45 1015.09 1014.82 1014.68
1012.52 1012.85 1013.18 1013.45 1013.59 1013.59 1013.46 1013.25 1013.02 1012.88 1012.91 1013.17 1013.69 1014.46 1015.42 1016.49 1017.57 1018.56 1019.37 1019.95 1020.30 1020.42 1020.37 1020.20 1019.97 1019.73 1019.51 1019.32 1019.16 1019.01 1018.84 1018.65 1018.42 1018.17 1017.90 1017.64 1017.40 1017.19 1017.02 1016.87 1016.72 1016.54 1016.32 1016.04 1015.71 1015.34 1014.98 1014.68 1014.51
1012.83 1013.18 1013.50 1013.73 1013.82 1013.75 1013.55 1013.28 1013.01 1012.85 1012.88 1013.17 1013.74 1014.56 1015.58 1016.71 1017.83 1018.83 1019.63 1020.20 1020.51 1020.60 1020.53 1020.34 1020.12 1019.92 1019.76 1019.64 1019.56 1019.48 1019.37 1019.21 1018.99 1018.70 1018.37 1018.03 1017.69 1017.38 1017.12 1016.90 1016.70 1016.51 1016.29 1016.04 1015.75 1015.43 1015.11 1014.84 1014.67
1013.10 1013.41 1013.68 1013.85 1013.88 1013.77 1013.54 1013.25 1012.98 1012.85 1012.94 1013.29 1013.92 1014.81 1015.88 1017.03 1018.15 1019.14 1019.91 1020.44 1020.70 1020.75 1020.65 1020.46 1020.26 1020.10 1020.00 1019.96 1019.97 1019.97 1019.92 1019.81 1019.60 1019.29 1018.92 1018.50 1018.08 1017.68 1017.34 1017.05 1016.81 1016.61 1016.41 1016.21 1015.98 1015.73 1015.49 1015.28 1015.14
1013.26 1013.48 1013.65 1013.74 1013.71 1013.57 1013.33 1013.07 1012.87 1012.82 1012.99 1013.44 1014.16 1015.11 1016.22 1017.39 1018.50 1019.45 1020.18 1020.65 1020.87 1020.89 1020.77 1020.59 1020.42 1020.31 1020.28 1020.32 1020.40 1020.48 1020.50 1020.43 1020.24 1019.94 1019.54 1019.08 1018.60 1018.13 1017.73 1017.39 1017.12 1016.91 1016.74 1016.58 1016.43 1016.27 1016.11 1015.97 1015.88
1013.28 1013.35 1013.41 1013.40 1013.30 1013.13 1012.92 1012.72 1012.62 1012.69 1013.00 1013.56 1014.38 1015.40 1016.55 1017.72 1018.81 1019.72 1020.41 1020.84 1021.03 1021.03 1020.91 1020.76 1020.63 1020.57 1020.60 1020.72 1020.87 1021.01 1021.10 1021.07 1020.92 1020.63 1020.23 1019.75 1019.24 1018.75 1018.30 1017.94 1017.65 1017.44 1017.29 1017.18 1017.08 1016.99 1016.90 1016.83 1016.80
Thickness
5770 5777 5783 5780 5769 5764 5769 5778 5782 5783 5790 5802 5806 5805 5804 5802 5798 5791 5811 5821 5818 5813 5804 5795 5791 5789 5788 5786 5785 5782 5780 5778 5775 5772 5769 5767 5765 5763 5761 5759 5758 5756 5755 5754 5753 5751 5750 5749 5747
5773 5776 5774 5770 5760 5758 5766 5777 5776 5783 5792 5801 5804 5804 5802 5803 5810 5809 5812 5814 5813 5809 5800 5794 5788 5786 5785 5783 5782 5780 5778 5775 5773 5770 5767 5765 5763 5761 5759 5757 5756 5754 5753 5752 5750 5749 5748 5746 5745
5769 5771 5766 5762 5757 5764 5767 5774 5777 5786 5796 5796 5799 5805 5802 5798 5806 5808 5811 5811 5809 5804 5798 5790 5785 5783 5781 5780 5778 5777 5774 5772 5770 5767 5765 5762 5760 5758 5757 5755 5754 5752 5751 5749 5748 5746 5745 5744 5743
5764 5761 5760 5754 5754 5765 5768 5773 5779 5783 5791 5796 5798 5795 5799 5800 5806 5810 5809 5808 5805 5800 5794 5785 5780 5778 5777 5775 5774 5773 5771 5769 5767 5764 5762 5760 5758 5756 5754 5753 5751 5750 5748 5747 5745 5744 5742 5741 5740
5762 5756 5745 5746 5754 5763 5769 5774 5777 5779 5784 5791 5795 5790 5788 5796 5805 5807 5805 5804 5800 5797 5791 5781 5776 5773 5772 5771 5769 5768 5767 5765 5763 5761 5759 5757 5755 5753 5752 5750 5749 5747 5746 5744 5743 5741 5740 5739 5738
5750 5750 5741 5743 5749 5757 5767 5774 5776 5780 5786 5791 5793 5787 5781 5792 5796 5799 5800 5798 5797 5792 5787 5777 5770 5768 5767 5766 5764 5763 5762 5761 5759 5757 5755 5753 5752 5750 5748 5747 5746 5744 5743 5742 5740 5739 5737 5736 5735
5745 5743 5744 5747 5746 5751 5760 5772 5773 5777 5782 5787 5795 5784 5778 5784 5789 5794 5794 5794 5791 5788 5783 5774 5768 5764 5761 5760 5759 5758 5757 5756 5755 5753 5751 5749 5748 5746 5745 5744 5743 5741 5740 5739 5737 5736 5735 5733 5732
5750 5744 5739 5742 5742 5746 5760 5769 5773 5776 5777 5789 5795 5782 5774 5778 5785 5788 5788 5787 5785 5782 5778 5772 5768 5764 5760 5757 5754 5753 5752 5751 5749 5748 5746 5745 5743 5742 5741 5740 5739 5738 5737 5736 5735 5733 5732 5731 5730
5743 5735 5734 5739 5741 5746 5760 5763 5769 5778 5778 5780 5785 5785 5782 5782 5782 5780 5778 5777 5776 5774 5772 5770 5767 5763 5761 5758 5752 5749 5747 5745 5744 5743 5741 5740 5742 5741 5739 5739 5736 5735 5734 5733 5732 5731 5730 5728 5727
5734 5731 5735 5741 5747 5749 5755 5759 5764 5771 5769 5769 5770 5774 5778 5778 5777 5774 5772 5770 5768 5765 5766 5766 5765 5761 5760 5757 5752 5749 5747 5744 5743 5743 5740 5739 5740 5740 5739 5736 5733 5731 5730 5730 5729 5728 5727 5727 5729
5731 5731 5734 5739 5746 5749 5752 5755 5763 5765 5758 5761 5762 5764 5770 5771 5771 5770 5768 5767 5765 5762 5760 5761 5759 5757 5757 5754 5751 5749 5747 5744 5742 5741 5738 5737 5736 5735 5735 5733 5730 5728 5728 5729 5727 5727 5730 5730 5732
5726 5729 5733 5738 5743 5745 5748 5752 5754 5754 5753 5761 5763 5764 5765 5764 5765 5764 5762 5761 5759 5757 5753 5754 5753 5751 5750 5750 5748 5746 5745 5743 5741 5739 5736 5735 5734 5733 5733 5732 5732 5730 5729 5729 5729 5730 5730 5730 5729
5722 5726 5732 5738 5742 5745 5745 5745 5745 5744 5751 5756 5757 5757 5757 5758 5756 5755 5755 5754 5752 5747 5746 5746 5745 5744 5743 5742 5742 5741 5740 5739 5737 5736 5734 5733 5731 5730 5730 5729 5728 5729 5729 5727 5726 5728 5727 5727 5726
5725 5728 5731 5736 5739 5739 5739 5740 5741 5737 5747 5748 5748 5748 5748 5745 5744 5743 5741 5740 5739 5738 5738 5739 5737 5736 5735 5735 5734 5735 5735 5733 5734 5732 5731 5729 5728 5726 5725 5724 5724 5725 5725 5725 5724 5724 5723 5723 5723
5726 5723 5727 5732 5736 5738 5739 5728 5731 5735 5741 5740 5741 5738 5735 5734 5733 5730 5729 5729 5730 5730 5730 5730 5730 5730 5729 5729 5729 5729 5729 5729 5728 5727 5725 5723 5723 5722 5721 5721 5720 5720 5720 5719 5719 5719 5719 5718 5718
5723 5722 5719 5726 5733 5735 5733 5721 5724 5732 5734 5732 5733 5730 5726 5723 5723 5721 5721 5721 5721 5721 5721 5722 5724 5723 5722 5722 5722 5724 5724 5723 5722 5721 5720 5718 5717 5717 5717 5717 5717 5716 5716 5716 5716 5716 5715 5714 5713
5717 5719 5720 5719 5730 5732 5732 5722 5720 5727 5728 5724 5723 5722 5719 5715 5712 5711 5712 5711 5711 5711 5712 5713 5715 5716 5716 5716 5716 5717 5716 5716 5716 5715 5714 5712 5711 5712 5713 5713 5713 5711 5712 5712 5713 5712 5711 5709 5707
5711 5718 5716 5717 5723 5728 5726 5719 5715 5719 5720 5716 5714 5712 5709 5706 5701 5701 5701 5702 5702 5702 5703 5704 5706 5707 5708 5709 5709 5709 5709 5709 5708 5708 5707 5706 5705 5706 5706 5706 5707 5707 5708 5708 5707 5707 5705 5704 5702
5715 5715 5714 5715 5721 5723 5719 5713 5709 5711 5711 5708 5706 5704 5701 5697 5694 5693 5692 5692 5692 5692 5693 5694 5695 5696 5698 5699 5700 5700 5701 5701 5701 5700 5700 5700 5700 5700 5700 5702 5702 5702 5703 5704 5703 5701 5698 5697 5695
5710 5710 5711 5712 5716 5716 5712 5707 5707 5705 5703 5701 5698 5695 5692 5689 5686 5683 5682 5682 5682 5682 5682 5684 5685 5686 5687 5689 5690 5691 5692 5692 5693 5693 5692 5692 5693 5694 5695 5695 5696 5697 5698 5698 5698 5696 5694 5692 5692
5707 5712 5713 5710 5710 5713 5707 5700 5701 5699 5698 5695 5692 5688 5685 5680 5677 5674 5672 5671 5672 5671 5672 5673 5673 5675 5677 5679 5682 5683 5684 5684 5684 5684 5684 5684 5685 5687 5688 5689 5691 5692 5693 5693 5693 5692 5690 5688 5687
5705 5715 5714 5710 5707 5708 5706 5702 5703 5699 5692 5688 5683 5681 5677 5672 5669 5666 5663 5661 5661 5661 5663 5664 5664 5666 5667 5670 5672 5674 5674 5674 5674 5675 5676 5676 5677 5679 5681 5683 5685 5685 5687 5688 5688 5688 5688 5686 5683
5710 5716 5714 5711 5709 5705 5705 5701 5708 5701 5691 5687 5680 5676 5671 5666 5662 5657 5653 5651 5651 5652 5654 5655 5655 5656 5658 5660 5662 5663 5664 5665 5665 5666 5666 5668 5669 5670 5673 5675 5676 5677 5680 5681 5681 5682 5683 5684 5683
5713 5711 5709 5710 5711 5694 5702 5697 5701 5702 5697 5692 5681 5671 5664 5659 5655 5650 5647 5644 5643 5644 5645 5646 5646 5647 5648 5649 5651 5652 5653 5654 5655 5655 5657 5659 5660 5661 5663 5665 5667 5669 5671 5672 5674 5675 5677 5678 5678
5709 5702 5693 5691 5691 5695 5703 5694 5697 5699 5696 5691 5680 5667 5658 5654 5649 5644 5640 5637 5636 5636 5636 5637 5637 5637 5638 5639 5640 5641 5643 5644 5645 5646 5646 5648 5650 5651 5652 5655 5658 5660 5661 5664 5666 5668 5669 5670 5670
5705 5704 5689 5679 5685 5697 5695 5691 5696 5692 5688 5683 5676 5664 5653 5648 5643 5637 5633 5630 5629 5628 5627 5628 5628 5628 5629 5629 5630 5631 5633 5634 5635 5635 5636 5638 5639 5640 5642 5645 5647 5650 5653 5656 5659 5661 5661 5662 5662
5702 5704 5709 5695 5694 5687 5695 5695 5688 5681 5676 5672 5665 5655 5648 5642 5636 5631 5627 5624 5622 5620 5619 5619 5619 5619 5619 5620 5621 5622 5623 5623 5624 5625 5626 5628 5629 5631 5633 5636 5638 5641 5644 5647 5651 5653 5653 5654 5655
5710 5705 5697 5690 5676 5674 5687 5689 5692 5682 5674 5666 5658 5650 5642 5636 5630 5624 5620 5617 5615 5613 5612 5611 5610 5610 5610 5611 5612 5612 5612 5613 5615 5616 5616 5618 5619 5621 5624 5626 5628 5631 5635 5638 5641 5643 5644 5645 5645
5696 5695 5694 5694 5689 5674 5671 5685 5696 5691 5683 5670 5659 5649 5639 5632 5625 5618 5614 5611 5608 5606 5605 5603 5602 5602 5602 5602 5603 5603 5603 5604 5605 5606 5607 5608 5610 5612 5614 5616 5619 5622 5625 5628 5630 5632 5634 5635 5635
5699 5695 5690 5678 5678 5680 5676 5682 5687 5686 5681 5672 5659 5645 5634 5626 5619 5613 5609 5605 5602 5599 5598 5596 5595 5594 5594 5594 5593 5593 5594 5595 5596 5596 5597 5598 5600 5602 5604 5606 5609 5612 5614 5617 5620 5622 5624 5625 5625